Year,Month,Day,Hour,Minute,Value (Times are PST for temperature in C)
2012,02,13,00,00,5.20
2012,02,13,00,01,5.20
2012,02,13,00,02,5.20
2012,02,13,00,03,5.20
2012,02,13,00,04,5.20
2012,02,13,00,05,5.20
2012,02,13,00,06,5.20
2012,02,13,00,07,5.20
2012,02,13,00,08,5.20
2012,02,13,00,09,5.20
2012,02,13,00,10,5.20
2012,02,13,00,11,5.20
2012,02,13,00,12,5.20
2012,02,13,00,13,5.10
2012,02,13,00,14,5.10
2012,02,13,00,15,5.10
2012,02,13,00,16,5.10
2012,02,13,00,17,5.10
2012,02,13,00,18,5.10
2012,02,13,00,19,5.10
2012,02,13,00,20,5.00
2012,02,13,00,21,5.00
2012,02,13,00,22,5.00
2012,02,13,00,23,5.00
2012,02,13,00,24,4.90
2012,02,13,00,25,4.90
2012,02,13,00,26,4.90
2012,02,13,00,27,4.90
2012,02,13,00,28,4.90
2012,02,13,00,29,4.90
2012,02,13,00,30,4.90
2012,02,13,00,31,4.90
2012,02,13,00,32,4.90
2012,02,13,00,33,4.90
2012,02,13,00,34,4.80
2012,02,13,00,35,4.80
2012,02,13,00,36,4.80
2012,02,13,00,37,4.80
2012,02,13,00,38,4.80
2012,02,13,00,39,4.80
2012,02,13,00,40,4.80
2012,02,13,00,42,4.80
2012,02,13,00,43,4.80
2012,02,13,00,44,4.80
2012,02,13,00,45,4.80
2012,02,13,00,46,4.80
2012,02,13,00,47,4.80
2012,02,13,00,48,4.80
2012,02,13,00,49,4.80
2012,02,13,00,50,4.80
2012,02,13,00,51,4.80
2012,02,13,00,52,4.80
2012,02,13,00,53,4.80
2012,02,13,00,54,4.80
2012,02,13,00,55,4.80
2012,02,13,00,56,4.80
2012,02,13,00,57,4.80
2012,02,13,00,58,4.80
2012,02,13,00,59,4.80
2012,02,13,01,00,4.80
2012,02,13,01,01,4.80
2012,02,13,01,02,4.80
2012,02,13,01,03,4.80
2012,02,13,01,04,4.80
2012,02,13,01,05,4.80
2012,02,13,01,06,4.70
2012,02,13,01,07,4.80
2012,02,13,01,08,4.80
2012,02,13,01,10,4.70
2012,02,13,01,11,4.70
2012,02,13,01,12,4.70
2012,02,13,01,13,4.70
2012,02,13,01,14,4.70
2012,02,13,01,15,4.70
2012,02,13,01,16,4.70
2012,02,13,01,17,4.70
2012,02,13,01,18,4.70
2012,02,13,01,19,4.70
2012,02,13,01,20,4.70
2012,02,13,01,22,4.70
2012,02,13,01,23,4.70
2012,02,13,01,24,4.70
2012,02,13,01,25,4.70
2012,02,13,01,26,4.80
2012,02,13,01,27,4.80
2012,02,13,01,28,4.80
2012,02,13,01,29,4.70
2012,02,13,01,30,4.80
2012,02,13,01,31,4.80
2012,02,13,01,32,4.80
2012,02,13,01,33,4.80
2012,02,13,01,34,4.80
2012,02,13,01,35,4.80
2012,02,13,01,36,4.80
2012,02,13,01,37,4.80
2012,02,13,01,38,4.80
2012,02,13,01,39,4.80
2012,02,13,01,40,4.70
2012,02,13,01,41,4.70
2012,02,13,01,42,4.80
2012,02,13,01,43,4.70
2012,02,13,01,44,4.70
2012,02,13,01,45,4.70
2012,02,13,01,46,4.70
2012,02,13,01,47,4.70
2012,02,13,01,48,4.70
2012,02,13,01,49,4.70
2012,02,13,01,50,4.70
2012,02,13,01,51,4.70
2012,02,13,01,52,4.70
2012,02,13,01,53,4.70
2012,02,13,01,54,4.70
2012,02,13,01,55,4.70
2012,02,13,01,56,4.70
2012,02,13,01,57,4.70
2012,02,13,01,58,4.70
2012,02,13,01,59,4.70
2012,02,13,02,00,4.70
2012,02,13,02,01,4.70
2012,02,13,02,02,4.70
2012,02,13,02,03,4.70
2012,02,13,02,04,4.70
2012,02,13,02,05,4.70
2012,02,13,02,06,4.70
2012,02,13,02,07,4.70
2012,02,13,02,08,4.70
2012,02,13,02,09,4.70
2012,02,13,02,10,4.70
2012,02,13,02,11,4.60
2012,02,13,02,12,4.60
2012,02,13,02,13,4.60
2012,02,13,02,14,4.60
2012,02,13,02,15,4.60
2012,02,13,02,16,4.60
2012,02,13,02,17,4.60
2012,02,13,02,18,4.60
2012,02,13,02,19,4.60
2012,02,13,02,20,4.60
2012,02,13,02,21,4.60
2012,02,13,02,22,4.60
2012,02,13,02,23,4.60
2012,02,13,02,24,4.60
2012,02,13,02,25,4.60
2012,02,13,02,26,4.60
2012,02,13,02,27,4.60
2012,02,13,02,28,4.60
2012,02,13,02,29,4.60
2012,02,13,02,30,4.60
2012,02,13,02,31,4.60
2012,02,13,02,33,4.60
2012,02,13,02,34,4.50
2012,02,13,02,35,4.50
2012,02,13,02,36,4.50
2012,02,13,02,37,4.50
2012,02,13,02,38,4.50
2012,02,13,02,39,4.50
2012,02,13,02,40,4.40
2012,02,13,02,41,4.40
2012,02,13,02,42,4.40
2012,02,13,02,43,4.40
2012,02,13,02,44,4.40
2012,02,13,02,45,4.40
2012,02,13,02,46,4.40
2012,02,13,02,47,4.40
2012,02,13,02,48,4.40
2012,02,13,02,49,4.40
2012,02,13,02,50,4.40
2012,02,13,02,51,4.40
2012,02,13,02,53,4.40
2012,02,13,02,54,4.40
2012,02,13,02,55,4.40
2012,02,13,02,56,4.30
2012,02,13,02,57,4.30
2012,02,13,02,58,4.30
2012,02,13,02,59,4.30
2012,02,13,03,00,4.30
2012,02,13,03,01,4.30
2012,02,13,03,02,4.30
2012,02,13,03,03,4.30
2012,02,13,03,04,4.30
2012,02,13,03,05,4.30
2012,02,13,03,06,4.30
2012,02,13,03,07,4.30
2012,02,13,03,08,4.30
2012,02,13,03,09,4.30
2012,02,13,03,10,4.30
2012,02,13,03,11,4.30
2012,02,13,03,12,4.30
2012,02,13,03,13,4.30
2012,02,13,03,14,4.30
2012,02,13,03,15,4.30
2012,02,13,03,16,4.30
2012,02,13,03,17,4.30
2012,02,13,03,18,4.30
2012,02,13,03,19,4.30
2012,02,13,03,20,4.30
2012,02,13,03,21,4.30
2012,02,13,03,22,4.30
2012,02,13,03,24,4.30
2012,02,13,03,25,4.30
2012,02,13,03,26,4.30
2012,02,13,03,27,4.30
2012,02,13,03,28,4.30
2012,02,13,03,29,4.30
2012,02,13,03,30,4.30
2012,02,13,03,31,4.30
2012,02,13,03,32,4.30
2012,02,13,03,33,4.40
2012,02,13,03,34,4.30
2012,02,13,03,35,4.40
2012,02,13,03,36,4.40
2012,02,13,03,37,4.40
2012,02,13,03,38,4.40
2012,02,13,03,39,4.40
2012,02,13,03,40,4.40
2012,02,13,03,41,4.40
2012,02,13,03,42,4.40
2012,02,13,03,43,4.40
2012,02,13,03,44,4.40
2012,02,13,03,45,4.40
2012,02,13,03,46,4.40
2012,02,13,03,47,4.40
2012,02,13,03,48,4.40
2012,02,13,03,49,4.40
2012,02,13,03,50,4.40
2012,02,13,03,51,4.40
2012,02,13,03,52,4.40
2012,02,13,03,53,4.40
2012,02,13,03,54,4.40
2012,02,13,03,55,4.40
2012,02,13,03,56,4.40
2012,02,13,03,57,4.40
2012,02,13,03,58,4.40
2012,02,13,04,00,4.40
2012,02,13,04,01,4.40
2012,02,13,04,02,4.40
2012,02,13,04,03,4.40
2012,02,13,04,04,4.40
2012,02,13,04,05,4.40
2012,02,13,04,06,4.40
2012,02,13,04,07,4.40
2012,02,13,04,08,4.40
2012,02,13,04,09,4.40
2012,02,13,04,10,4.40
2012,02,13,04,11,4.40
2012,02,13,04,12,4.40
2012,02,13,04,13,4.40
2012,02,13,04,14,4.40
2012,02,13,04,15,4.40
2012,02,13,04,17,4.40
2012,02,13,04,18,4.40
2012,02,13,04,19,4.40
2012,02,13,04,20,4.40
2012,02,13,04,21,4.30
2012,02,13,04,22,4.40
2012,02,13,04,23,4.40
2012,02,13,04,25,4.30
2012,02,13,04,27,4.30
2012,02,13,04,28,4.30
2012,02,13,04,29,4.30
2012,02,13,04,30,4.30
2012,02,13,04,31,4.30
2012,02,13,04,32,4.30
2012,02,13,04,33,4.30
2012,02,13,04,34,4.30
2012,02,13,04,35,4.30
2012,02,13,04,36,4.30
2012,02,13,04,37,4.30
2012,02,13,04,38,4.30
2012,02,13,04,39,4.30
2012,02,13,04,40,4.30
2012,02,13,04,41,4.30
2012,02,13,04,42,4.30
2012,02,13,04,43,4.30
2012,02,13,04,44,4.30
2012,02,13,04,45,4.30
2012,02,13,04,46,4.30
2012,02,13,04,47,4.30
2012,02,13,04,48,4.30
2012,02,13,04,49,4.30
2012,02,13,04,50,4.30
2012,02,13,04,51,4.30
2012,02,13,04,52,4.30
2012,02,13,04,53,4.30
2012,02,13,04,54,4.30
2012,02,13,04,55,4.30
2012,02,13,04,56,4.30
2012,02,13,04,57,4.30
2012,02,13,04,58,4.30
2012,02,13,04,59,4.30
2012,02,13,05,00,4.30
2012,02,13,05,01,4.30
2012,02,13,05,02,4.30
2012,02,13,05,03,4.30
2012,02,13,05,04,4.30
2012,02,13,05,05,4.30
2012,02,13,05,06,4.30
2012,02,13,05,07,4.30
2012,02,13,05,08,4.30
2012,02,13,05,09,4.30
2012,02,13,05,10,4.40
2012,02,13,05,11,4.40
2012,02,13,05,12,4.30
2012,02,13,05,13,4.30
2012,02,13,05,15,4.30
2012,02,13,05,16,4.30
2012,02,13,05,17,4.30
2012,02,13,05,18,4.30
2012,02,13,05,19,4.30
2012,02,13,05,20,4.30
2012,02,13,05,21,4.30
2012,02,13,05,22,4.30
2012,02,13,05,23,4.30
2012,02,13,05,24,4.30
2012,02,13,05,25,4.30
2012,02,13,05,26,4.30
2012,02,13,05,27,4.20
2012,02,13,05,28,4.20
2012,02,13,05,29,4.20
2012,02,13,05,30,4.20
2012,02,13,05,31,4.20
2012,02,13,05,32,4.20
2012,02,13,05,33,4.20
2012,02,13,05,35,4.20
2012,02,13,05,36,4.20
2012,02,13,05,38,4.20
2012,02,13,05,40,4.10
2012,02,13,05,41,4.10
2012,02,13,05,42,4.10
2012,02,13,05,43,4.10
2012,02,13,05,45,4.10
2012,02,13,05,46,4.10
2012,02,13,05,47,4.10
2012,02,13,05,48,4.10
2012,02,13,05,49,4.10
2012,02,13,05,50,4.00
2012,02,13,05,52,4.00
2012,02,13,05,53,4.00
2012,02,13,05,54,3.90
2012,02,13,05,55,3.90
2012,02,13,05,56,3.90
2012,02,13,05,57,3.90
2012,02,13,05,58,3.90
2012,02,13,05,59,3.90
2012,02,13,06,00,3.90
2012,02,13,06,01,3.80
2012,02,13,06,02,3.80
2012,02,13,06,03,3.80
2012,02,13,06,04,3.80
2012,02,13,06,05,3.80
2012,02,13,06,06,3.80
2012,02,13,06,07,3.80
2012,02,13,06,09,3.70
2012,02,13,06,10,3.70
2012,02,13,06,11,3.70
2012,02,13,06,12,3.70
2012,02,13,06,13,3.70
2012,02,13,06,14,3.70
2012,02,13,06,15,3.70
2012,02,13,06,16,3.70
2012,02,13,06,17,3.70
2012,02,13,06,18,3.70
2012,02,13,06,20,3.70
2012,02,13,06,22,3.70
2012,02,13,06,23,3.70
2012,02,13,06,24,3.70
2012,02,13,06,25,3.70
2012,02,13,06,26,3.70
2012,02,13,06,27,3.60
2012,02,13,06,28,3.60
2012,02,13,06,29,3.60
2012,02,13,06,30,3.60
2012,02,13,06,31,3.60
2012,02,13,06,32,3.60
2012,02,13,06,33,3.60
2012,02,13,06,34,3.60
2012,02,13,06,35,3.60
2012,02,13,06,36,3.60
2012,02,13,06,37,3.60
2012,02,13,06,38,3.50
2012,02,13,06,39,3.50
2012,02,13,06,41,3.50
2012,02,13,06,42,3.50
2012,02,13,06,43,3.50
2012,02,13,06,44,3.50
2012,02,13,06,45,3.50
2012,02,13,06,46,3.50
2012,02,13,06,47,3.50
2012,02,13,06,48,3.50
2012,02,13,06,49,3.50
2012,02,13,06,50,3.50
2012,02,13,06,51,3.50
2012,02,13,06,52,3.50
2012,02,13,06,53,3.50
2012,02,13,06,54,3.40
2012,02,13,06,55,3.50
2012,02,13,06,56,3.50
2012,02,13,06,57,3.50
2012,02,13,06,58,3.50
2012,02,13,06,59,3.50
2012,02,13,07,00,3.50
2012,02,13,07,02,3.40
2012,02,13,07,03,3.40
2012,02,13,07,04,3.40
2012,02,13,07,05,3.40
2012,02,13,07,06,3.40
2012,02,13,07,07,3.40
2012,02,13,07,08,3.40
2012,02,13,07,09,3.40
2012,02,13,07,10,3.40
2012,02,13,07,11,3.40
2012,02,13,07,12,3.40
2012,02,13,07,13,3.40
2012,02,13,07,14,3.40
2012,02,13,07,15,3.40
2012,02,13,07,16,3.40
2012,02,13,07,17,3.40
2012,02,13,07,18,3.40
2012,02,13,07,19,3.40
2012,02,13,07,20,3.40
2012,02,13,07,21,3.40
2012,02,13,07,22,3.40
2012,02,13,07,23,3.40
2012,02,13,07,24,3.40
2012,02,13,07,25,3.40
2012,02,13,07,26,3.40
2012,02,13,07,27,3.40
2012,02,13,07,28,3.40
2012,02,13,07,29,3.40
2012,02,13,07,30,3.30
2012,02,13,07,31,3.30
2012,02,13,07,32,3.30
2012,02,13,07,33,3.30
2012,02,13,07,34,3.30
2012,02,13,07,35,3.30
2012,02,13,07,36,3.30
2012,02,13,07,37,3.30
2012,02,13,07,38,3.30
2012,02,13,07,39,3.30
2012,02,13,07,40,3.30
2012,02,13,07,41,3.30
2012,02,13,07,42,3.30
2012,02,13,07,43,3.30
2012,02,13,07,44,3.30
2012,02,13,07,45,3.20
2012,02,13,07,46,3.20
2012,02,13,07,47,3.20
2012,02,13,07,48,3.20
2012,02,13,07,49,3.20
2012,02,13,07,50,3.20
2012,02,13,07,51,3.20
2012,02,13,07,52,3.20
2012,02,13,07,53,3.20
2012,02,13,07,54,3.20
2012,02,13,07,55,3.20
2012,02,13,07,56,3.20
2012,02,13,07,57,3.20
2012,02,13,07,58,3.20
2012,02,13,07,59,3.20
2012,02,13,08,00,3.20
2012,02,13,08,02,3.20
2012,02,13,08,03,3.20
2012,02,13,08,04,3.20
2012,02,13,08,05,3.20
2012,02,13,08,06,3.20
2012,02,13,08,07,3.20
2012,02,13,08,08,3.20
2012,02,13,08,09,3.20
2012,02,13,08,10,3.20
2012,02,13,08,11,3.20
2012,02,13,08,12,3.20
2012,02,13,08,14,3.20
2012,02,13,08,15,3.20
2012,02,13,08,16,3.20
2012,02,13,08,17,3.20
2012,02,13,08,18,3.30
2012,02,13,08,19,3.20
2012,02,13,08,20,3.30
2012,02,13,08,21,3.30
2012,02,13,08,22,3.30
2012,02,13,08,24,3.30
2012,02,13,08,26,3.30
2012,02,13,08,27,3.30
2012,02,13,08,28,3.30
2012,02,13,08,30,3.30
2012,02,13,08,31,3.30
2012,02,13,08,32,3.30
2012,02,13,08,33,3.30
2012,02,13,08,34,3.30
2012,02,13,08,36,3.30
2012,02,13,08,37,3.30
2012,02,13,08,39,3.30
2012,02,13,08,40,3.30
2012,02,13,08,41,3.30
2012,02,13,08,42,3.20
2012,02,13,08,43,3.30
2012,02,13,08,44,3.20
2012,02,13,08,45,3.20
2012,02,13,08,46,3.20
2012,02,13,08,47,3.20
2012,02,13,08,48,3.30
2012,02,13,08,49,3.30
2012,02,13,08,50,3.30
2012,02,13,08,51,3.30
2012,02,13,08,52,3.30
2012,02,13,08,53,3.30
2012,02,13,08,54,3.30
2012,02,13,08,55,3.30
2012,02,13,08,56,3.30
2012,02,13,08,57,3.30
2012,02,13,08,58,3.30
2012,02,13,08,59,3.30
2012,02,13,09,00,3.30
2012,02,13,09,01,3.30
2012,02,13,09,02,3.30
2012,02,13,09,04,3.30
2012,02,13,09,05,3.30
2012,02,13,09,06,3.30
2012,02,13,09,07,3.30
2012,02,13,09,08,3.30
2012,02,13,09,09,3.30
2012,02,13,09,10,3.30
2012,02,13,09,11,3.30
2012,02,13,09,12,3.30
2012,02,13,09,13,3.30
2012,02,13,09,14,3.30
2012,02,13,09,15,3.30
2012,02,13,09,16,3.30
2012,02,13,09,18,3.40
2012,02,13,09,19,3.40
2012,02,13,09,20,3.40
2012,02,13,09,22,3.50
2012,02,13,09,23,3.60
2012,02,13,09,24,3.60
2012,02,13,09,25,3.60
2012,02,13,09,26,3.60
2012,02,13,09,27,3.70
2012,02,13,09,28,3.70
2012,02,13,09,29,3.70
2012,02,13,09,30,3.70
2012,02,13,09,31,3.60
2012,02,13,09,32,3.60
2012,02,13,09,33,3.60
2012,02,13,09,34,3.60
2012,02,13,09,35,3.60
2012,02,13,09,36,3.60
2012,02,13,09,37,3.60
2012,02,13,09,38,3.70
2012,02,13,09,39,3.70
2012,02,13,09,40,3.70
2012,02,13,09,41,3.80
2012,02,13,09,42,3.80
2012,02,13,09,43,3.80
2012,02,13,09,44,3.90
2012,02,13,09,46,4.00
2012,02,13,09,47,4.10
2012,02,13,09,48,4.10
2012,02,13,09,50,4.10
2012,02,13,09,51,4.10
2012,02,13,09,52,4.10
2012,02,13,09,53,4.10
2012,02,13,09,54,4.10
2012,02,13,09,55,4.10
2012,02,13,09,56,4.10
2012,02,13,09,58,4.10
2012,02,13,10,00,4.00
2012,02,13,10,01,4.00
2012,02,13,10,02,4.00
2012,02,13,10,03,4.00
2012,02,13,10,04,4.00
2012,02,13,10,05,4.00
2012,02,13,10,06,4.00
2012,02,13,10,08,3.90
2012,02,13,10,09,3.90
2012,02,13,10,11,3.90
2012,02,13,10,12,3.90
2012,02,13,10,14,4.00
2012,02,13,10,15,4.10
2012,02,13,10,16,4.10
2012,02,13,10,17,4.10
2012,02,13,10,18,4.20
2012,02,13,10,19,4.20
2012,02,13,10,21,4.20
2012,02,13,10,22,4.30
2012,02,13,10,23,4.30
2012,02,13,10,24,4.30
2012,02,13,10,26,4.40
2012,02,13,10,27,4.40
2012,02,13,10,28,4.40
2012,02,13,10,30,4.60
2012,02,13,10,31,4.60
2012,02,13,10,32,4.60
2012,02,13,10,33,4.70
2012,02,13,10,35,4.80
2012,02,13,10,37,4.80
2012,02,13,10,39,4.90
2012,02,13,10,40,4.90
2012,02,13,10,42,4.90
2012,02,13,10,43,4.90
2012,02,13,10,45,4.80
2012,02,13,10,47,4.80
2012,02,13,10,48,4.70
2012,02,13,10,49,4.70
2012,02,13,10,51,4.70
2012,02,13,10,53,4.60
2012,02,13,10,55,4.60
2012,02,13,10,56,4.70
2012,02,13,10,57,4.70
2012,02,13,10,58,4.70
2012,02,13,10,59,4.70
2012,02,13,11,00,4.80
2012,02,13,11,01,4.80
2012,02,13,11,03,4.90
2012,02,13,11,04,5.10
2012,02,13,11,05,5.10
2012,02,13,11,07,5.20
2012,02,13,11,08,5.30
2012,02,13,11,09,5.30
2012,02,13,11,10,5.30
2012,02,13,11,11,5.30
2012,02,13,11,12,5.30
2012,02,13,11,14,5.30
2012,02,13,11,15,5.40
2012,02,13,11,16,5.40
2012,02,13,11,17,5.40
2012,02,13,11,18,5.40
2012,02,13,11,20,5.30
2012,02,13,11,21,5.30
2012,02,13,11,22,5.30
2012,02,13,11,23,5.30
2012,02,13,11,25,5.30
2012,02,13,11,26,5.30
2012,02,13,11,27,5.40
2012,02,13,11,28,5.40
2012,02,13,11,29,5.40
2012,02,13,11,30,5.40
2012,02,13,11,31,5.40
2012,02,13,11,32,5.40
2012,02,13,11,34,5.40
2012,02,13,11,36,5.40
2012,02,13,11,37,5.40
2012,02,13,11,38,5.40
2012,02,13,11,39,5.40
2012,02,13,11,40,5.50
2012,02,13,11,41,5.50
2012,02,13,11,42,5.60
2012,02,13,11,43,5.70
2012,02,13,11,45,5.70
2012,02,13,11,46,5.70
2012,02,13,11,47,5.70
2012,02,13,11,48,5.70
2012,02,13,11,49,5.70
2012,02,13,11,50,5.70
2012,02,13,11,51,5.80
2012,02,13,11,52,5.80
2012,02,13,11,53,5.80
2012,02,13,11,54,5.90
2012,02,13,11,55,5.90
2012,02,13,11,56,5.90
2012,02,13,11,57,6.00
2012,02,13,11,58,6.00
2012,02,13,11,59,6.10
2012,02,13,12,00,6.10
2012,02,13,12,01,6.10
2012,02,13,12,02,6.20
2012,02,13,12,03,6.20
2012,02,13,12,04,6.10
2012,02,13,12,05,6.10
2012,02,13,12,06,6.10
2012,02,13,12,07,6.10
2012,02,13,12,08,6.00
2012,02,13,12,09,6.00
2012,02,13,12,10,5.90
2012,02,13,12,12,5.90
2012,02,13,12,13,5.90
2012,02,13,12,14,5.90
2012,02,13,12,15,5.90
2012,02,13,12,16,5.90
2012,02,13,12,18,5.90
2012,02,13,12,19,5.90
2012,02,13,12,20,5.90
2012,02,13,12,21,5.90
2012,02,13,12,22,5.90
2012,02,13,12,23,5.90
2012,02,13,12,24,5.90
2012,02,13,12,25,6.00
2012,02,13,12,26,6.00
2012,02,13,12,27,6.10
2012,02,13,12,28,6.10
2012,02,13,12,29,6.10
2012,02,13,12,30,6.00
2012,02,13,12,31,6.00
2012,02,13,12,32,6.10
2012,02,13,12,33,6.00
2012,02,13,12,34,6.00
2012,02,13,12,35,6.00
2012,02,13,12,36,6.00
2012,02,13,12,37,6.00
2012,02,13,12,38,6.10
2012,02,13,12,40,6.10
2012,02,13,12,41,6.20
2012,02,13,12,42,6.20
2012,02,13,12,43,6.20
2012,02,13,12,44,6.20
2012,02,13,12,45,6.20
2012,02,13,12,46,6.20
2012,02,13,12,48,6.30
2012,02,13,12,49,6.30
2012,02,13,12,50,6.40
2012,02,13,12,51,6.40
2012,02,13,12,53,6.60
2012,02,13,12,54,6.60
2012,02,13,12,56,6.70
2012,02,13,12,57,6.80
2012,02,13,12,58,6.80
2012,02,13,13,00,6.80
2012,02,13,13,01,6.70
2012,02,13,13,02,6.80
2012,02,13,13,03,6.80
2012,02,13,13,04,6.80
2012,02,13,13,06,6.80
2012,02,13,13,07,6.70
2012,02,13,13,09,6.80
2012,02,13,13,10,6.80
2012,02,13,13,11,6.80
2012,02,13,13,12,6.90
2012,02,13,13,13,7.00
2012,02,13,13,14,7.10
2012,02,13,13,15,7.20
2012,02,13,13,17,7.20
2012,02,13,13,19,7.30
2012,02,13,13,20,7.30
2012,02,13,13,21,7.30
2012,02,13,13,22,7.40
2012,02,13,13,24,7.60
2012,02,13,13,25,7.60
2012,02,13,13,27,7.70
2012,02,13,13,28,7.80
2012,02,13,13,29,7.80
2012,02,13,13,30,7.80
2012,02,13,13,31,7.80
2012,02,13,13,33,7.90
2012,02,13,13,34,7.90
2012,02,13,13,35,8.00
2012,02,13,13,36,8.10
2012,02,13,13,37,8.20
2012,02,13,13,39,8.30
2012,02,13,13,41,8.50
2012,02,13,13,42,8.50
2012,02,13,13,43,8.60
2012,02,13,13,44,8.60
2012,02,13,13,45,8.70
2012,02,13,13,46,8.70
2012,02,13,13,48,8.90
2012,02,13,13,50,8.90
2012,02,13,13,51,8.90
2012,02,13,13,52,8.80
2012,02,13,13,53,8.70
2012,02,13,13,55,8.60
2012,02,13,13,56,8.40
2012,02,13,13,57,8.30
2012,02,13,13,59,8.30
2012,02,13,14,00,8.30
2012,02,13,14,01,8.30
2012,02,13,14,03,8.30
2012,02,13,14,04,8.40
2012,02,13,14,05,8.40
2012,02,13,14,06,8.40
2012,02,13,14,08,8.50
2012,02,13,14,09,8.50
2012,02,13,14,10,8.60
2012,02,13,14,11,8.60
2012,02,13,14,12,8.60
2012,02,13,14,13,8.60
2012,02,13,14,15,8.70
2012,02,13,14,16,8.70
2012,02,13,14,17,8.70
2012,02,13,14,18,8.70
2012,02,13,14,20,8.70
2012,02,13,14,21,8.70
2012,02,13,14,22,8.80
2012,02,13,14,23,8.80
2012,02,13,14,24,8.80
2012,02,13,14,25,8.90
2012,02,13,14,27,9.00
2012,02,13,14,28,9.00
2012,02,13,14,30,9.10
2012,02,13,14,31,9.10
2012,02,13,14,33,9.20
2012,02,13,14,34,9.20
2012,02,13,14,35,9.30
2012,02,13,14,36,9.30
2012,02,13,14,38,9.40
2012,02,13,14,40,9.40
2012,02,13,14,41,9.40
2012,02,13,14,42,9.40
2012,02,13,14,43,9.40
2012,02,13,14,44,9.40
2012,02,13,14,45,9.40
2012,02,13,14,46,9.40
2012,02,13,14,47,9.40
2012,02,13,14,48,9.40
2012,02,13,14,49,9.40
2012,02,13,14,50,9.50
2012,02,13,14,51,9.50
2012,02,13,14,52,9.60
2012,02,13,14,53,9.60
2012,02,13,14,54,9.60
2012,02,13,14,55,9.70
2012,02,13,14,56,9.70
2012,02,13,14,57,9.70
2012,02,13,14,58,9.70
2012,02,13,14,59,9.70
2012,02,13,15,00,9.70
2012,02,13,15,01,9.70
2012,02,13,15,02,9.70
2012,02,13,15,03,9.70
2012,02,13,15,04,9.70
2012,02,13,15,05,9.70
2012,02,13,15,06,9.70
2012,02,13,15,07,9.70
2012,02,13,15,08,9.70
2012,02,13,15,09,9.70
2012,02,13,15,10,9.70
2012,02,13,15,11,9.70
2012,02,13,15,12,9.60
2012,02,13,15,14,9.60
2012,02,13,15,15,9.60
2012,02,13,15,16,9.50
2012,02,13,15,17,9.40
2012,02,13,15,18,9.40
2012,02,13,15,19,9.30
2012,02,13,15,20,9.30
2012,02,13,15,22,9.30
2012,02,13,15,23,9.30
2012,02,13,15,25,9.20
2012,02,13,15,26,9.20
2012,02,13,15,27,9.10
2012,02,13,15,28,9.10
2012,02,13,15,29,9.00
2012,02,13,15,30,9.00
2012,02,13,15,31,9.00
2012,02,13,15,32,9.00
2012,02,13,15,33,9.10
2012,02,13,15,34,9.10
2012,02,13,15,35,9.20
2012,02,13,15,36,9.20
2012,02,13,15,37,9.20
2012,02,13,15,38,9.30
2012,02,13,15,39,9.30
2012,02,13,15,40,9.30
2012,02,13,15,41,9.40
2012,02,13,15,42,9.40
2012,02,13,15,43,9.50
2012,02,13,15,44,9.50
2012,02,13,15,45,9.50
2012,02,13,15,46,9.50
2012,02,13,15,47,9.50
2012,02,13,15,48,9.40
2012,02,13,15,49,9.30
2012,02,13,15,50,9.20
2012,02,13,15,51,9.20
2012,02,13,15,52,9.10
2012,02,13,15,53,9.00
2012,02,13,15,54,8.90
2012,02,13,15,55,8.80
2012,02,13,15,56,8.80
2012,02,13,15,57,8.70
2012,02,13,15,58,8.70
2012,02,13,15,59,8.60
2012,02,13,16,00,8.60
2012,02,13,16,01,8.60
2012,02,13,16,02,8.50
2012,02,13,16,03,8.40
2012,02,13,16,04,8.40
2012,02,13,16,05,8.30
2012,02,13,16,06,8.30
2012,02,13,16,07,8.30
2012,02,13,16,08,8.30
2012,02,13,16,10,8.20
2012,02,13,16,11,8.20
2012,02,13,16,12,8.20
2012,02,13,16,13,8.20
2012,02,13,16,14,8.20
2012,02,13,16,15,8.10
2012,02,13,16,16,8.10
2012,02,13,16,17,8.10
2012,02,13,16,18,8.10
2012,02,13,16,19,8.00
2012,02,13,16,20,8.00
2012,02,13,16,21,8.00
2012,02,13,16,22,7.90
2012,02,13,16,23,7.90
2012,02,13,16,24,7.90
2012,02,13,16,25,7.90
2012,02,13,16,26,7.90
2012,02,13,16,27,7.90
2012,02,13,16,28,7.80
2012,02,13,16,29,7.80
2012,02,13,16,30,7.80
2012,02,13,16,31,7.80
2012,02,13,16,32,7.80
2012,02,13,16,33,7.80
2012,02,13,16,34,7.70
2012,02,13,16,35,7.70
2012,02,13,16,36,7.70
2012,02,13,16,37,7.70
2012,02,13,16,38,7.70
2012,02,13,16,39,7.70
2012,02,13,16,40,7.70
2012,02,13,16,41,7.70
2012,02,13,16,42,7.70
2012,02,13,16,43,7.70
2012,02,13,16,44,7.60
2012,02,13,16,45,7.60
2012,02,13,16,46,7.60
2012,02,13,16,47,7.60
2012,02,13,16,49,7.60
2012,02,13,16,50,7.60
2012,02,13,16,51,7.60
2012,02,13,16,52,7.60
2012,02,13,16,53,7.60
2012,02,13,16,54,7.50
2012,02,13,16,55,7.50
2012,02,13,16,56,7.50
2012,02,13,16,57,7.50
2012,02,13,16,58,7.50
2012,02,13,16,59,7.50
2012,02,13,17,00,7.40
2012,02,13,17,01,7.50
2012,02,13,17,02,7.50
2012,02,13,17,03,7.40
2012,02,13,17,05,7.40
2012,02,13,17,06,7.40
2012,02,13,17,07,7.40
2012,02,13,17,08,7.40
2012,02,13,17,09,7.40
2012,02,13,17,10,7.40
2012,02,13,17,11,7.40
2012,02,13,17,12,7.40
2012,02,13,17,13,7.30
2012,02,13,17,14,7.30
2012,02,13,17,15,7.30
2012,02,13,17,16,7.30
2012,02,13,17,17,7.30
2012,02,13,17,18,7.30
2012,02,13,17,20,7.20
2012,02,13,17,21,7.20
2012,02,13,17,22,7.20
2012,02,13,17,23,7.20
2012,02,13,17,24,7.20
2012,02,13,17,25,7.20
2012,02,13,17,26,7.20
2012,02,13,17,27,7.20
2012,02,13,17,28,7.20
2012,02,13,17,29,7.20
2012,02,13,17,30,7.20
2012,02,13,17,31,7.10
2012,02,13,17,32,7.10
2012,02,13,17,33,7.10
2012,02,13,17,34,7.10
2012,02,13,17,35,7.00
2012,02,13,17,36,6.90
2012,02,13,17,37,6.80
2012,02,13,17,38,6.80
2012,02,13,17,39,6.70
2012,02,13,17,40,6.60
2012,02,13,17,41,6.60
2012,02,13,17,42,6.50
2012,02,13,17,43,6.40
2012,02,13,17,44,6.30
2012,02,13,17,45,6.30
2012,02,13,17,46,6.30
2012,02,13,17,47,6.20
2012,02,13,17,48,6.20
2012,02,13,17,49,6.20
2012,02,13,17,51,6.10
2012,02,13,17,52,6.10
2012,02,13,17,53,6.10
2012,02,13,17,55,6.10
2012,02,13,17,56,6.10
2012,02,13,17,57,6.10
2012,02,13,17,58,6.10
2012,02,13,17,59,6.00
2012,02,13,18,00,6.00
2012,02,13,18,01,6.00
2012,02,13,18,03,5.90
2012,02,13,18,04,5.90
2012,02,13,18,05,5.90
2012,02,13,18,07,5.80
2012,02,13,18,08,5.80
2012,02,13,18,09,5.80
2012,02,13,18,10,5.80
2012,02,13,18,11,5.80
2012,02,13,18,12,5.80
2012,02,13,18,13,5.80
2012,02,13,18,15,5.70
2012,02,13,18,16,5.70
2012,02,13,18,17,5.70
2012,02,13,18,18,5.70
2012,02,13,18,19,5.60
2012,02,13,18,20,5.60
2012,02,13,18,22,5.60
2012,02,13,18,23,5.60
2012,02,13,18,24,5.50
2012,02,13,18,25,5.50
2012,02,13,18,26,5.40
2012,02,13,18,28,5.40
2012,02,13,18,30,5.30
2012,02,13,18,31,5.30
2012,02,13,18,32,5.30
2012,02,13,18,33,5.30
2012,02,13,18,35,5.30
2012,02,13,18,36,5.20
2012,02,13,18,37,5.20
2012,02,13,18,38,5.20
2012,02,13,18,40,5.20
2012,02,13,18,41,5.20
2012,02,13,18,43,5.10
2012,02,13,18,44,5.10
2012,02,13,18,45,5.10
2012,02,13,18,46,5.10
2012,02,13,18,47,5.10
2012,02,13,18,48,5.10
2012,02,13,18,50,5.10
2012,02,13,18,51,5.10
2012,02,13,18,52,5.10
2012,02,13,18,53,5.00
2012,02,13,18,54,5.10
2012,02,13,18,55,5.10
2012,02,13,18,56,5.10
2012,02,13,18,57,5.00
2012,02,13,18,58,5.10
2012,02,13,18,59,5.10
2012,02,13,19,00,5.10
2012,02,13,19,01,5.10
2012,02,13,19,02,5.00
2012,02,13,19,03,5.00
2012,02,13,19,04,5.00
2012,02,13,19,06,5.00
2012,02,13,19,07,5.00
2012,02,13,19,08,5.10
2012,02,13,19,09,5.00
2012,02,13,19,10,5.00
2012,02,13,19,11,5.00
2012,02,13,19,12,5.00
2012,02,13,19,13,5.00
2012,02,13,19,14,5.00
2012,02,13,19,15,5.00
2012,02,13,19,16,4.90
2012,02,13,19,18,4.90
2012,02,13,19,19,4.90
2012,02,13,19,20,4.90
2012,02,13,19,21,4.90
2012,02,13,19,22,4.90
2012,02,13,19,23,4.90
2012,02,13,19,24,4.90
2012,02,13,19,25,4.90
2012,02,13,19,26,4.90
2012,02,13,19,27,4.90
2012,02,13,19,28,4.90
2012,02,13,19,29,4.90
2012,02,13,19,30,4.90
2012,02,13,19,31,4.90
2012,02,13,19,32,4.90
2012,02,13,19,33,4.90
2012,02,13,19,34,4.90
2012,02,13,19,35,4.90
2012,02,13,19,36,4.90
2012,02,13,19,37,4.90
2012,02,13,19,38,4.90
2012,02,13,19,39,4.90
2012,02,13,19,40,4.90
2012,02,13,19,41,4.90
2012,02,13,19,42,4.90
2012,02,13,19,43,4.90
2012,02,13,19,44,4.90
2012,02,13,19,45,4.90
2012,02,13,19,46,4.90
2012,02,13,19,47,4.90
2012,02,13,19,48,4.90
2012,02,13,19,49,4.90
2012,02,13,19,50,4.90
2012,02,13,19,51,4.90
2012,02,13,19,52,4.90
2012,02,13,19,53,4.90
2012,02,13,19,54,4.90